| time (UTC) | temp F | wind direction | speed knots | gust knots | rain 1hr in | rain 24hr in | rain mn in | humidity % | barometer mb |
| 20260505201147 | 82 | 244 | 3.5 | 6.1 | 0.00 | 0.00 | 0.00 | 42 | 1024.6 |
| 20260505200645 | 80 | 191 | 3.5 | 9.6 | 0.00 | 0.00 | 0.00 | 40 | 1024.9 |
| 20260505200141 | 81 | 227 | 5.2 | 13.9 | 0.00 | 0.00 | 0.00 | 42 | 1024.9 |
| 20260505195637 | 81 | 241 | 4.3 | 5.2 | 0.00 | 0.00 | 0.00 | 43 | 1024.9 |
| 20260505195135 | 80 | 183 | 4.3 | 7.8 | 0.00 | 0.00 | 0.00 | 45 | 1025.0 |
| 20260505194632 | 80 | 191 | 7.8 | 11.3 | 0.00 | 0.00 | 0.00 | 43 | 1025.0 |
| 20260505194128 | 81 | 197 | 5.2 | 6.1 | 0.00 | 0.00 | 0.00 | 43 | 1025.3 |
| 20260505193625 | 80 | 150 | 1.7 | 7.0 | 0.00 | 0.00 | 0.00 | 42 | 1025.1 |
| 20260505193122 | 80 | 188 | 2.6 | 4.3 | 0.00 | 0.00 | 0.00 | 44 | 1025.4 |
| 20260505192621 | 80 | 118 | 3.5 | 8.7 | 0.00 | 0.00 | 0.00 | 41 | 1025.4 |
| 20260505192117 | 80 | 213 | 2.6 | 5.2 | 0.00 | 0.00 | 0.00 | 42 | 1025.5 |
| 20260505191616 | 81 | 201 | 1.7 | 4.3 | 0.00 | 0.00 | 0.00 | 41 | 1025.4 |
| 20260505191113 | 81 | 202 | 1.7 | 7.0 | 0.00 | 0.00 | 0.00 | 42 | 1025.4 |
| 20260505190609 | 80 | 99 | 1.7 | 6.1 | 0.00 | 0.00 | 0.00 | 43 | 1025.4 |
| 20260505190104 | 79 | 192 | 1.7 | 13.9 | 0.00 | 0.00 | 0.00 | 41 | 1025.6 |
| 20260505185601 | 79 | 84 | 1.7 | 9.6 | 0.00 | 0.00 | 0.00 | 41 | 1025.7 |
| 20260505185057 | 80 | 199 | 4.3 | 7.8 | 0.00 | 0.00 | 0.00 | 41 | 1025.7 |
| 20260505184554 | 79 | 230 | 6.1 | 7.8 | 0.00 | 0.00 | 0.00 | 39 | 1025.8 |
| 20260505184051 | 80 | 183 | 4.3 | 7.8 | 0.00 | 0.00 | 0.00 | 38 | 1026.0 |
| 20260505183547 | 80 | 201 | 2.6 | 5.2 | 0.00 | 0.00 | 0.00 | 42 | 1026.0 |
| 20260505183045 | 80 | 326 | 1.7 | 9.6 | 0.00 | 0.00 | 0.00 | 39 | 1026.0 |
| 20260505182541 | 79 | 135 | 5.2 | 7.0 | 0.00 | 0.00 | 0.00 | 38 | 1026.4 |
| 20260505182038 | 80 | 308 | 0.0 | 7.8 | 0.00 | 0.00 | 0.00 | 41 | 1026.5 |
| 20260505181535 | 80 | 180 | 1.7 | 9.6 | 0.00 | 0.00 | 0.00 | 42 | 1026.5 |
| 20260505181032 | 79 | 63 | 1.7 | 11.3 | 0.00 | 0.00 | 0.00 | 41 | 1026.8 |
| 20260505180528 | 79 | 166 | 7.8 | 14.8 | 0.00 | 0.00 | 0.00 | 43 | 1026.7 |
| 20260505180027 | 81 | 159 | 4.3 | 6.1 | 0.00 | 0.00 | 0.00 | 40 | 1026.7 |
| 20260505175526 | 80 | 90 | 0.9 | 6.1 | 0.00 | 0.00 | 0.00 | 41 | 1026.6 |
| 20260505175023 | 80 | 141 | 2.6 | 5.2 | 0.00 | 0.00 | 0.00 | 46 | 1026.6 |
| 20260505174520 | 80 | 195 | 1.7 | 4.3 | 0.00 | 0.00 | 0.00 | 44 | 1026.8 |
| 20260505174016 | 79 | 152 | 2.6 | 7.0 | 0.00 | 0.00 | 0.00 | 43 | 1026.9 |
| 20260505173513 | 79 | 193 | 5.2 | 7.0 | 0.00 | 0.00 | 0.00 | 43 | 1026.6 |
| 20260505173010 | 78 | 266 | 4.3 | 8.7 | 0.00 | 0.00 | 0.00 | 45 | 1026.7 |
| 20260505172508 | 78 | 151 | 2.6 | 8.7 | 0.00 | 0.00 | 0.00 | 47 | 1026.4 |
| 20260505172003 | 80 | 146 | 4.3 | 7.0 | 0.00 | 0.00 | 0.00 | 46 | 1026.7 |
| 20260505171459 | 78 | 186 | 3.5 | 5.2 | 0.00 | 0.00 | 0.00 | 46 | 1026.5 |
| 20260505170956 | 78 | 160 | 0.0 | 7.8 | 0.00 | 0.00 | 0.00 | 47 | 1026.6 |
| 20260505170452 | 78 | 200 | 0.0 | 5.2 | 0.00 | 0.00 | 0.00 | 46 | 1026.9 |
| 20260505165948 | 78 | 214 | 1.7 | 7.0 | 0.00 | 0.00 | 0.00 | 42 | 1026.8 |
| 20260505165444 | 77 | 236 | 8.7 | 8.7 | 0.00 | 0.00 | 0.00 | 44 | 1026.8 |
| 20260505164939 | 79 | 122 | 2.6 | 4.3 | 0.00 | 0.00 | 0.00 | 46 | 1026.7 |
| 20260505164437 | 77 | 180 | 1.7 | 7.8 | 0.00 | 0.00 | 0.00 | 47 | 1026.7 |
| 20260505163934 | 77 | 151 | 5.2 | 5.2 | 0.00 | 0.00 | 0.00 | 47 | 1026.9 |
| 20260505163433 | 77 | 219 | 6.1 | 7.8 | 0.00 | 0.00 | 0.00 | 48 | 1027.1 |
| 20260505162932 | 78 | 218 | 4.3 | 7.0 | 0.00 | 0.00 | 0.00 | 47 | 1027.1 |
| 20260505162427 | 78 | 135 | 1.7 | 5.2 | 0.00 | 0.00 | 0.00 | 50 | 1027.3 |
| 20260505161924 | 77 | 147 | 3.5 | 6.1 | 0.00 | 0.00 | 0.00 | 49 | 1027.4 |
| 20260505161421 | 77 | 212 | 2.6 | 6.1 | 0.00 | 0.00 | 0.00 | 50 | 1027.5 |
| 20260505160918 | 76 | 225 | 0.0 | 5.2 | 0.00 | 0.00 | 0.00 | 55 | 1027.3 |
| 20260505160416 | 76 | 194 | 5.2 | 10.4 | 0.00 | 0.00 | 0.00 | 53 | 1027.5 |
| 20260505153355 | 75 | 234 | 4.3 | 6.1 | 0.00 | 0.00 | 0.00 | 60 | 1027.5 |
| 20260505152853 | 75 | 239 | 1.7 | 6.1 | 0.00 | 0.00 | 0.00 | 61 | 1027.9 |
| 20260505152350 | 75 | 150 | 1.7 | 5.2 | 0.00 | 0.00 | 0.00 | 64 | 1027.7 |
| 20260505151849 | 74 | 152 | 2.6 | 5.2 | 0.00 | 0.00 | 0.00 | 67 | 1027.8 |
| 20260505151347 | 74 | 189 | 4.3 | 7.8 | 0.00 | 0.00 | 0.00 | 66 | 1027.7 |
| 20260505150843 | 73 | 170 | 2.6 | 7.8 | 0.00 | 0.00 | 0.00 | 68 | 1027.8 |
| 20260505150341 | 73 | 135 | 3.5 | 4.3 | 0.00 | 0.00 | 0.00 | 68 | 1027.8 |
| 20260505140305 | 70 | 132 | 1.7 | 10.4 | 0.00 | 0.00 | 0.00 | 76 | 1027.3 |
| 20260505130229 | 65 | 233 | 2.6 | 7.0 | 0.00 | 0.00 | 0.00 | 82 | 1027.2 |
| 20260505124719 | 64 | 154 | 0.0 | 5.2 | 0.00 | 0.00 | 0.00 | 85 | 1027.5 |
| 20260505124216 | 62 | 180 | 0.0 | 4.3 | 0.00 | 0.00 | 0.00 | 87 | 1027.4 |
| 20260505123711 | 61 | 180 | 2.6 | 4.3 | 0.00 | 0.00 | 0.00 | 87 | 1027.4 |
| 20260505123209 | 61 | 191 | 1.7 | 4.3 | 0.00 | 0.00 | 0.00 | 88 | 1027.5 |
| 20260505122705 | 61 | 189 | 4.3 | 5.2 | 0.00 | 0.00 | 0.00 | 88 | 1027.4 |
| 20260505122202 | 60 | 206 | 7.8 | 7.8 | 0.00 | 0.00 | 0.00 | 89 | 1027.5 |
| 20260505121659 | 60 | 214 | 0.0 | 6.1 | 0.00 | 0.00 | 0.00 | 89 | 1027.4 |
| 20260505121155 | 59 | 107 | 3.5 | 5.2 | 0.00 | 0.00 | 0.00 | 89 | 1027.2 |
| 20260505120651 | 59 | 193 | 4.3 | 5.2 | 0.00 | 0.00 | 0.00 | 90 | 1027.1 |
| 20260505120148 | 58 | 180 | 2.6 | 3.5 | 0.00 | 0.00 | 0.00 | 92 | 1027.0 |
| 20260505115641 | 58 | 104 | 2.6 | 4.3 | 0.00 | 0.00 | 0.00 | 94 | 1027.0 |
| 20260505115139 | 57 | 53 | 1.7 | 3.5 | 0.00 | 0.00 | 0.00 | 97 | 1027.0 |
| 20260505114636 | 56 | 81 | 1.7 | 3.5 | 0.00 | 0.00 | 0.00 | 97 | 1026.9 |
| 20260505114132 | 56 | 90 | 1.7 | 2.6 | 0.00 | 0.00 | 0.00 | 97 | 1027.0 |
| 20260505113629 | 55 | 71 | 0.9 | 2.6 | 0.00 | 0.00 | 0.00 | 97 | 1026.9 |
| 20260505113126 | 55 | 85 | 1.7 | 3.5 | 0.00 | 0.00 | 0.00 | 97 | 1026.8 |
| 20260505112622 | 55 | 87 | 2.6 | 4.3 | 0.00 | 0.00 | 0.00 | 98 | 1026.9 |
| 20260505112120 | 53 | 77 | 0.9 | 2.6 | 0.00 | 0.00 | 0.00 | 98 | 1026.9 |
| 20260505111614 | 53 | 55 | 1.7 | 2.6 | 0.00 | 0.00 | 0.00 | 97 | 1026.8 |
| 20260505111110 | 53 | 32 | 1.7 | 1.7 | 0.00 | 0.00 | 0.00 | 97 | 1026.6 |
| 20260505110607 | 53 | 54 | 0.0 | 2.6 | 0.00 | 0.00 | 0.00 | 98 | 1026.7 |
| 20260505110104 | 53 | 90 | 2.6 | 2.6 | 0.00 | 0.00 | 0.00 | 97 | 1026.9 |
| 20260505102039 | 54 | 48 | 0.0 | 0.0 | 0.00 | 0.00 | 0.00 | 95 | 1026.3 |
| 20260505101538 | 54 | 32 | 0.9 | 1.7 | 0.00 | 0.00 | 0.00 | 95 | 1026.3 |
| 20260505101033 | 54 | 71 | 0.9 | 2.6 | 0.00 | 0.00 | 0.00 | 94 | 1026.3 |
| 20260505100531 | 54 | 90 | 1.7 | 1.7 | 0.00 | 0.00 | 0.00 | 93 | 1026.4 |
| 20260505100028 | 54 | 306 | 0.0 | 2.6 | 0.00 | 0.00 | 0.00 | 93 | 1026.3 |
| 20260505095524 | 55 | 41 | 0.0 | 2.6 | 0.00 | 0.00 | 0.00 | 92 | 1026.4 |
| 20260505095020 | 55 | 49 | 0.0 | 2.6 | 0.00 | 0.00 | 0.00 | 91 | 1026.3 |
| 20260505094517 | 56 | 90 | 0.0 | 1.7 | 0.00 | 0.00 | 0.00 | 90 | 1026.1 |
| 20260505094013 | 56 | 49 | 0.0 | 2.6 | 0.00 | 0.00 | 0.00 | 90 | 1026.4 |
| 20260505093509 | 56 | 180 | 0.0 | 2.6 | 0.00 | 0.00 | 0.00 | 89 | 1026.4 |
| 20260505093007 | 57 | 114 | 0.0 | 2.6 | 0.00 | 0.00 | 0.00 | 88 | 1026.5 |
| 20260505092504 | 57 | 176 | 0.0 | 2.6 | 0.00 | 0.00 | 0.00 | 87 | 1026.3 |
| 20260505092002 | 57 | 180 | 1.7 | 2.6 | 0.00 | 0.00 | 0.00 | 87 | 1026.1 |
| 20260505091459 | 57 | 262 | 1.7 | 3.5 | 0.00 | 0.00 | 0.00 | 87 | 1026.2 |
| 20260505090957 | 57 | 120 | 1.7 | 1.7 | 0.00 | 0.00 | 0.00 | 87 | 1026.2 |
| 20260505090455 | 57 | 172 | 0.0 | 1.7 | 0.00 | 0.00 | 0.00 | 86 | 1026.2 |
| 20260505085952 | 57 | 270 | 0.0 | 4.3 | 0.00 | 0.00 | 0.00 | 86 | 1026.2 |
| 20260505085450 | 57 | 90 | 0.9 | 2.6 | 0.00 | 0.00 | 0.00 | 85 | 1026.1 |
| 20260505084948 | 57 | 293 | 1.7 | 4.3 | 0.00 | 0.00 | 0.00 | 86 | 1026.2 |
| 20260505084446 | 57 | 176 | 0.0 | 1.7 | 0.00 | 0.00 | 0.00 | 85 | 1026.1 |
| 20260505083943 | 57 | 127 | 0.0 | 1.7 | 0.00 | 0.00 | 0.00 | 86 | 1026.2 |
| 20260505083441 | 57 | 40 | 1.7 | 2.6 | 0.00 | 0.00 | 0.00 | 85 | 1026.1 |
| 20260505082937 | 57 | 95 | 1.7 | 3.5 | 0.00 | 0.00 | 0.00 | 85 | 1026.0 |
| 20260505082432 | 57 | 258 | 1.7 | 2.6 | 0.00 | 0.00 | 0.00 | 86 | 1026.4 |
| 20260505081930 | 58 | 107 | 1.7 | 1.7 | 0.00 | 0.00 | 0.00 | 85 | 1026.2 |
| 20260505081427 | 58 | 144 | 0.0 | 3.5 | 0.00 | 0.00 | 0.00 | 83 | 1026.1 |
| 20260505080923 | 58 | 270 | 0.0 | 1.7 | 0.00 | 0.00 | 0.00 | 83 | 1026.4 |
| 20260505080419 | 58 | 225 | 0.0 | 2.6 | 0.00 | 0.00 | 0.00 | 82 | 1026.1 |
| 20260505075915 | 58 | 90 | 0.0 | 2.6 | 0.00 | 0.00 | 0.00 | 82 | 1026.0 |
| 20260505075412 | 59 | 174 | 0.0 | 2.6 | 0.00 | 0.00 | 0.00 | 82 | 1026.0 |
| 20260505074909 | 59 | 208 | 1.7 | 4.3 | 0.00 | 0.00 | 0.00 | 81 | 1026.1 |
| 20260505074406 | 59 | 95 | 1.7 | 3.5 | 0.00 | 0.00 | 0.00 | 81 | 1026.1 |
| 20260505073903 | 59 | 206 | 1.7 | 2.6 | 0.00 | 0.00 | 0.00 | 81 | 1025.9 |
| 20260505073401 | 59 | 252 | 2.6 | 3.5 | 0.00 | 0.00 | 0.00 | 81 | 1026.0 |
| 20260505072858 | 59 | 248 | 1.7 | 2.6 | 0.00 | 0.00 | 0.00 | 81 | 1026.0 |
| 20260505072354 | 59 | 157 | 2.6 | 2.6 | 0.00 | 0.00 | 0.00 | 80 | 1025.8 |
| 20260505071850 | 59 | 237 | 1.7 | 4.3 | 0.00 | 0.00 | 0.00 | 80 | 1026.1 |
| 20260505071347 | 59 | 160 | 0.0 | 2.6 | 0.00 | 0.00 | 0.00 | 80 | 1025.9 |
| 20260505070845 | 59 | 270 | 2.6 | 2.6 | 0.00 | 0.00 | 0.00 | 80 | 1025.9 |
| 20260505070341 | 59 | 180 | 1.7 | 3.5 | 0.00 | 0.00 | 0.00 | 79 | 1026.0 |
| 20260505065837 | 59 | 257 | 0.0 | 3.5 | 0.00 | 0.00 | 0.00 | 79 | 1025.6 |
| 20260505065334 | 59 | 145 | 2.6 | 2.6 | 0.00 | 0.00 | 0.00 | 79 | 1025.9 |
| 20260505064831 | 59 | 20 | 0.0 | 6.1 | 0.00 | 0.00 | 0.00 | 79 | 1025.9 |
| 20260505064327 | 60 | 80 | 2.6 | 3.5 | 0.00 | 0.00 | 0.00 | 79 | 1025.8 |
| 20260505063826 | 60 | 210 | 1.7 | 4.3 | 0.00 | 0.00 | 0.00 | 79 | 1026.0 |
| 20260505063321 | 60 | 215 | 0.9 | 3.5 | 0.00 | 0.00 | 0.00 | 78 | 1025.6 |
| 20260505062818 | 60 | 162 | 0.9 | 5.2 | 0.00 | 0.00 | 0.00 | 77 | 1025.9 |
| 20260505062316 | 60 | 179 | 3.5 | 4.3 | 0.00 | 0.00 | 0.00 | 78 | 1025.9 |
| 20260505061812 | 60 | 26 | 0.9 | 2.6 | 0.00 | 0.00 | 0.00 | 79 | 1025.9 |
| 20260505061311 | 61 | 180 | 0.0 | 3.5 | 0.00 | 0.00 | 0.00 | 78 | 1025.8 |
| 20260505060808 | 61 | 180 | 0.9 | 7.0 | 0.00 | 0.00 | 0.00 | 77 | 1025.8 |
| 20260505060305 | 60 | 186 | 0.9 | 4.3 | 0.00 | 0.00 | 0.00 | 77 | 1026.1 |
| 20260505055800 | 60 | 80 | 1.7 | 2.6 | 0.00 | 0.00 | 0.00 | 77 | 1026.0 |
| 20260505055256 | 61 | 95 | 1.7 | 2.6 | 0.00 | 0.00 | 0.00 | 77 | 1026.1 |
| 20260505054754 | 61 | 174 | 0.9 | 3.5 | 0.00 | 0.00 | 0.00 | 77 | 1026.1 |
| 20260505054251 | 61 | 176 | 0.0 | 2.6 | 0.00 | 0.00 | 0.00 | 76 | 1026.0 |
| 20260505053749 | 61 | 140 | 1.7 | 3.5 | 0.00 | 0.00 | 0.00 | 76 | 1026.1 |
| 20260505053246 | 61 | 151 | 2.6 | 2.6 | 0.00 | 0.00 | 0.00 | 76 | 1026.1 |
| 20260505052743 | 61 | 143 | 2.6 | 5.2 | 0.00 | 0.00 | 0.00 | 74 | 1026.3 |
| 20260505052240 | 62 | 183 | 2.6 | 6.1 | 0.00 | 0.00 | 0.00 | 73 | 1026.4 |
| 20260505051737 | 61 | 229 | 1.7 | 7.8 | 0.00 | 0.00 | 0.00 | 73 | 1026.4 |
| 20260505051235 | 62 | 138 | 2.6 | 6.1 | 0.00 | 0.00 | 0.00 | 73 | 1026.5 |
| 20260505050732 | 62 | 194 | 1.7 | 7.0 | 0.00 | 0.00 | 0.00 | 73 | 1026.3 |
| 20260505050231 | 62 | 99 | 0.0 | 5.2 | 0.00 | 0.00 | 0.00 | 74 | 1026.4 |
| 20260505041700 | 63 | 193 | 2.6 | 7.0 | 0.00 | 0.00 | 0.00 | 70 | 1026.4 |
| 20260505041158 | 63 | 213 | 0.0 | 5.2 | 0.00 | 0.00 | 0.00 | 70 | 1026.4 |
| 20260505040655 | 62 | 182 | 2.6 | 6.1 | 0.00 | 0.00 | 0.00 | 70 | 1026.1 |
| 20260505040152 | 62 | 99 | 0.0 | 3.5 | 0.00 | 0.00 | 0.00 | 71 | 1026.3 |
| 20260505035648 | 62 | 175 | 0.9 | 3.5 | 0.00 | 0.00 | 0.00 | 73 | 1026.2 |
| 20260505035144 | 61 | 172 | 0.0 | 4.3 | 0.00 | 0.00 | 0.00 | 74 | 1026.2 |
| 20260505034641 | 58 | 90 | 0.0 | 1.7 | 0.00 | 0.00 | 0.00 | 82 | 1026.3 |
| 20260505034139 | 58 | 294 | 0.0 | 0.9 | 0.00 | 0.00 | 0.00 | 82 | 1026.4 |
| 20260505033635 | 58 | 6 | 0.9 | 1.7 | 0.00 | 0.00 | 0.00 | 83 | 1026.3 |
| 20260505033133 | 58 | 180 | 1.7 | 1.7 | 0.00 | 0.00 | 0.00 | 80 | 1026.2 |
| 20260505032631 | 58 | 63 | 1.7 | 2.6 | 0.00 | 0.00 | 0.00 | 80 | 1026.3 |
| 20260505032127 | 58 | 60 | 0.0 | 1.7 | 0.00 | 0.00 | 0.00 | 81 | 1026.3 |
| 20260505031624 | 59 | 77 | 0.0 | 2.6 | 0.00 | 0.00 | 0.00 | 80 | 1026.3 |
| 20260505031120 | 59 | 93 | 2.6 | 3.5 | 0.00 | 0.00 | 0.00 | 80 | 1026.3 |
| 20260505030618 | 59 | 59 | 1.7 | 2.6 | 0.00 | 0.00 | 0.00 | 79 | 1026.3 |
| 20260505030113 | 59 | 95 | 1.7 | 2.6 | 0.00 | 0.00 | 0.00 | 77 | 1026.1 |
| 20260505025609 | 60 | 66 | 0.9 | 2.6 | 0.00 | 0.00 | 0.00 | 76 | 1026.2 |
| 20260505025108 | 60 | 40 | 1.7 | 2.6 | 0.00 | 0.00 | 0.00 | 75 | 1026.0 |
| 20260505024605 | 60 | 66 | 1.7 | 2.6 | 0.00 | 0.00 | 0.00 | 74 | 1026.2 |
| 20260505024103 | 61 | 69 | 0.9 | 2.6 | 0.00 | 0.00 | 0.00 | 74 | 1026.0 |
| 20260505023600 | 60 | 32 | 0.0 | 1.7 | 0.00 | 0.00 | 0.00 | 72 | 1026.1 |
| 20260505023057 | 61 | 82 | 0.9 | 1.7 | 0.00 | 0.00 | 0.00 | 71 | 1026.2 |
| 20260505022554 | 62 | 90 | 1.7 | 2.6 | 0.00 | 0.00 | 0.00 | 70 | 1025.9 |
| 20260505022051 | 62 | 41 | 1.7 | 1.7 | 0.00 | 0.00 | 0.00 | 68 | 1026.1 |
| 20260505021548 | 63 | 200 | 0.0 | 2.6 | 0.00 | 0.00 | 0.00 | 68 | 1026.0 |
| 20260505021045 | 63 | 18 | 0.9 | 1.7 | 0.00 | 0.00 | 0.00 | 68 | 1026.1 |
| 20260505020544 | 63 | 57 | 1.7 | 1.7 | 0.00 | 0.00 | 0.00 | 68 | 1026.1 |
| 20260505020042 | 63 | 41 | 1.7 | 2.6 | 0.00 | 0.00 | 0.00 | 67 | 1025.9 |
| 20260505015539 | 63 | 45 | 0.0 | 2.6 | 0.00 | 0.00 | 0.00 | 67 | 1026.0 |
| 20260505015035 | 64 | 40 | 1.7 | 1.7 | 0.00 | 0.00 | 0.00 | 66 | 1025.6 |
| 20260505014532 | 64 | 66 | 0.9 | 0.9 | 0.00 | 0.00 | 0.00 | 66 | 1025.8 |
| 20260505014030 | 65 | 15 | 0.0 | 0.9 | 0.00 | 0.00 | 0.00 | 64 | 1025.7 |
| 20260505013527 | 65 | 29 | 0.0 | 0.9 | 0.00 | 0.00 | 0.00 | 63 | 1025.7 |
| 20260505013024 | 66 | 81 | 0.0 | 1.7 | 0.00 | 0.00 | 0.00 | 61 | 1025.8 |
| 20260505012522 | 66 | 99 | 0.0 | 0.9 | 0.00 | 0.00 | 0.00 | 60 | 1025.5 |
| 20260505012019 | 67 | 90 | 0.0 | 2.6 | 0.00 | 0.00 | 0.00 | 59 | 1025.5 |
| 20260505011514 | 67 | 84 | 0.0 | 0.9 | 0.00 | 0.00 | 0.00 | 58 | 1025.4 |
| 20260505011011 | 68 | 90 | 1.7 | 1.7 | 0.00 | 0.00 | 0.00 | 57 | 1025.6 |
| 20260505010507 | 69 | 180 | 0.0 | 1.7 | 0.00 | 0.00 | 0.00 | 57 | 1025.4 |
| 20260505010004 | 69 | 184 | 1.7 | 3.5 | 0.00 | 0.00 | 0.00 | 54 | 1025.4 |
| 20260505005500 | 70 | 180 | 1.7 | 3.5 | 0.00 | 0.00 | 0.00 | 53 | 1025.3 |
| 20260505004958 | 70 | 200 | 0.9 | 3.5 | 0.00 | 0.00 | 0.00 | 52 | 1025.5 |
| 20260505004454 | 70 | 139 | 0.0 | 4.3 | 0.00 | 0.00 | 0.00 | 51 | 1025.3 |
| 20260505003951 | 71 | 184 | 1.7 | 6.1 | 0.00 | 0.00 | 0.00 | 50 | 1025.0 |
| 20260505003448 | 71 | 102 | 0.0 | 3.5 | 0.00 | 0.00 | 0.00 | 49 | 1025.2 |
| 20260505002944 | 71 | 204 | 5.2 | 7.0 | 0.00 | 0.00 | 0.00 | 48 | 1025.2 |
| 20260505002441 | 71 | 175 | 2.6 | 6.1 | 0.00 | 0.00 | 0.00 | 48 | 1024.8 |
| 20260505001939 | 71 | 180 | 0.9 | 3.5 | 0.00 | 0.00 | 0.00 | 49 | 1025.1 |
| 20260505001436 | 71 | 180 | 2.6 | 4.3 | 0.00 | 0.00 | 0.00 | 49 | 1024.8 |
| 20260505000933 | 72 | 198 | 0.9 | 4.3 | 0.00 | 0.00 | 0.00 | 48 | 1025.0 |
| 20260505000432 | 71 | 180 | 0.9 | 4.3 | 0.00 | 0.00 | 0.00 | 48 | 1025.0 |
| 20260504235928 | 71 | 185 | 0.0 | 2.6 | 0.00 | 0.00 | 0.00 | 50 | 1025.1 |
| 20260504235425 | 70 | 107 | 0.0 | 2.6 | 0.00 | 0.00 | 0.00 | 53 | 1024.7 |
| 20260504234921 | 71 | 180 | 0.0 | 0.0 | 0.00 | 0.00 | 0.00 | 51 | 1024.9 |
| 20260504234419 | 72 | 246 | 0.0 | 0.0 | 0.00 | 0.00 | 0.00 | 49 | 1024.7 |
| 20260504233915 | 73 | 246 | 0.0 | 0.0 | 0.00 | 0.00 | 0.00 | 44 | 1024.5 |
| 20260504233411 | 73 | 262 | 0.0 | 0.9 | 0.00 | 0.00 | 0.00 | 40 | 1024.5 |
| 20260504232908 | 74 | 196 | 0.0 | 0.0 | 0.00 | 0.00 | 0.00 | 40 | 1024.6 |
| 20260504232405 | 74 | 166 | 0.0 | 2.6 | 0.00 | 0.00 | 0.00 | 41 | 1024.6 |
| 20260504231902 | 75 | 229 | 0.0 | 1.7 | 0.00 | 0.00 | 0.00 | 39 | 1024.5 |
| 20260504231358 | 75 | 8 | 0.0 | 2.6 | 0.00 | 0.00 | 0.00 | 37 | 1024.5 |
| 20260504230855 | 75 | 254 | 1.7 | 5.2 | 0.00 | 0.00 | 0.00 | 35 | 1024.5 |
| 20260504230352 | 75 | 186 | 0.9 | 0.9 | 0.00 | 0.00 | 0.00 | 36 | 1024.4 |
| 20260504225851 | 75 | 276 | 0.9 | 3.5 | 0.00 | 0.00 | 0.00 | 35 | 1024.3 |
| 20260504225347 | 76 | 191 | 0.0 | 4.3 | 0.00 | 0.00 | 0.00 | 34 | 1024.4 |
| 20260504224844 | 76 | 189 | 1.7 | 5.2 | 0.00 | 0.00 | 0.00 | 33 | 1024.6 |
| 20260504224341 | 77 | 236 | 1.7 | 3.5 | 0.00 | 0.00 | 0.00 | 33 | 1024.6 |
| 20260504223838 | 77 | 239 | 5.2 | 7.0 | 0.00 | 0.00 | 0.00 | 33 | 1024.6 |
| 20260504223333 | 77 | 241 | 1.7 | 4.3 | 0.00 | 0.00 | 0.00 | 34 | 1024.6 |
| 20260504222830 | 77 | 249 | 2.6 | 7.0 | 0.00 | 0.00 | 0.00 | 34 | 1024.9 |
| 20260504222327 | 77 | 145 | 0.9 | 6.1 | 0.00 | 0.00 | 0.00 | 37 | 1024.7 |
| 20260504221826 | 77 | 180 | 0.9 | 7.8 | 0.00 | 0.00 | 0.00 | 36 | 1024.8 |
| 20260504221322 | 77 | 234 | 0.9 | 5.2 | 0.00 | 0.00 | 0.00 | 37 | 1024.7 |
| 20260504220819 | 77 | 209 | 0.9 | 7.0 | 0.00 | 0.00 | 0.00 | 36 | 1024.7 |
| 20260504220316 | 78 | 196 | 5.2 | 7.0 | 0.00 | 0.00 | 0.00 | 36 | 1024.9 |
| 20260504215813 | 77 | 188 | 2.6 | 11.3 | 0.00 | 0.00 | 0.00 | 39 | 1024.6 |
| 20260504215309 | 78 | 266 | 2.6 | 9.6 | 0.00 | 0.00 | 0.00 | 37 | 1024.5 |
| 20260504214805 | 78 | 270 | 0.0 | 2.6 | 0.00 | 0.00 | 0.00 | 38 | 1024.5 |
| 20260504214303 | 78 | 203 | 0.9 | 6.1 | 0.00 | 0.00 | 0.00 | 37 | 1024.5 |
| 20260504213759 | 79 | 230 | 0.0 | 4.3 | 0.00 | 0.00 | 0.00 | 37 | 1024.3 |
| 20260504213255 | 79 | 198 | 0.9 | 7.8 | 0.00 | 0.00 | 0.00 | 35 | 1024.4 |
| 20260504212752 | 79 | 173 | 0.9 | 6.1 | 0.00 | 0.00 | 0.00 | 35 | 1024.4 |
| 20260504212248 | 79 | 275 | 0.0 | 3.5 | 0.00 | 0.00 | 0.00 | 34 | 1024.5 |
| 20260504211746 | 79 | 246 | 6.1 | 7.8 | 0.00 | 0.00 | 0.00 | 34 | 1024.6 |
| 20260504211242 | 79 | 112 | 0.0 | 3.5 | 0.00 | 0.00 | 0.00 | 35 | 1024.5 |
| 20260504210740 | 79 | 201 | 1.7 | 7.8 | 0.00 | 0.00 | 0.00 | 36 | 1024.5 |
| 20260504210237 | 80 | 127 | 1.7 | 6.1 | 0.00 | 0.00 | 0.00 | 34 | 1024.4 |
| 20260504205734 | 79 | 158 | 2.6 | 5.2 | 0.00 | 0.00 | 0.00 | 33 | 1024.6 |
| 20260504205232 | 80 | 197 | 2.6 | 5.2 | 0.00 | 0.00 | 0.00 | 34 | 1024.8 |
| 20260504204729 | 79 | 161 | 1.7 | 5.2 | 0.00 | 0.00 | 0.00 | 37 | 1024.7 |
| 20260504204228 | 79 | 152 | 1.7 | 7.0 | 0.00 | 0.00 | 0.00 | 32 | 1024.9 |
| 20260504203727 | 79 | 75 | 0.0 | 4.3 | 0.00 | 0.00 | 0.00 | 35 | 1024.8 |
| 20260504203224 | 79 | 198 | 0.0 | 4.3 | 0.00 | 0.00 | 0.00 | 34 | 1024.6 |
| 20260504202724 | 79 | 326 | 1.7 | 4.3 | 0.00 | 0.00 | 0.00 | 34 | 1024.7 |
| 20260504202221 | 78 | 183 | 2.6 | 4.3 | 0.00 | 0.00 | 0.00 | 33 | 1024.7 |
| 20260504201718 | 79 | 222 | 2.6 | 5.2 | 0.00 | 0.00 | 0.00 | 32 | 1024.8 |
| 20260504201215 | 78 | 119 | 2.6 | 5.2 | 0.00 | 0.00 | 0.00 | 32 | 1024.9 |